User: anonymous   Login
Location: Laterina
(43.5167°N, 11.7167°E)
Time: 09:36:48
(UTC+00:00)
Language:

Cosmos 1125 Rocket - Orbit

View from above orbital plane
View from above orbital plane
View from above satellite
View from above satellite

Ground track
Ground track

The orbit data is extracted from the following two-line orbital elements,

1 11511U 79078B   21170.95553802 -.00000006  00000-0  70006-5 0  9993
2 11511  74.0349 144.5351 0014987  26.6882 333.5040 14.36929003188565
Epoch (UTC): 19 June 2021 22:55:58
Eccentricity: 0.0014987
inclination: 74.0349°
perigee height: 758 km
apogee height: 779 km
right ascension of ascending node: 144.5351°
argument of perigee: 26.6882°
revolutions per day: 14.36929003
mean anomaly at epoch: 333.5040°
orbit number at epoch: 18856

The dashed part of the orbit path shows where the satellite is in the earth's shadow,  

DLR